This is the latest recevied weather packets stored in our database for station/object LA1HSA-13. If no packets are shown the sender has not sent any weather packets the latest 10 day(s).
| Time | Temp. | Humidity | Pressure | Rain* | Wind** | Luminosity | Snow |
|---|---|---|---|---|---|---|---|
| 1777519804 | 3.33° C | 97% | 1028.1 hPa | 0 mm | - | - | - |
| 1777519203 | 3.33° C | 98% | 1027.9 hPa | 0 mm | - | - | - |
| 1777518604 | 3.89° C | 97% | 1028.1 hPa | 0 mm | - | - | - |
| 1777518003 | 3.89° C | 97% | 1028.1 hPa | 0 mm | - | - | - |
| 1777517404 | 4.44° C | 97% | 1028 hPa | 0 mm | - | - | - |
| 1777516803 | 3.89° C | 97% | 1028.2 hPa | 0 mm | - | - | - |
| 1777516203 | 3.89° C | 97% | 1028.2 hPa | 0 mm | - | - | - |
| 1777515603 | 3.89° C | 96% | 1028.3 hPa | 0 mm | - | - | - |
| 1777515003 | 4.44° C | 96% | 1028 hPa | 0 mm | - | - | - |
| 1777514403 | 4.44° C | 95% | 1028 hPa | 0 mm | - | - | - |
| 1777513804 | 4.44° C | 95% | 1028 hPa | 0 mm | - | - | - |
| 1777513203 | 5° C | 95% | 1027.9 hPa | 0 mm | - | - | - |
| 1777512604 | 5° C | 94% | 1028 hPa | 0 mm | - | - | - |
| 1777512004 | 5° C | 93% | 1028 hPa | 0 mm | - | - | - |
| 1777511403 | 5.56° C | 93% | 1028.2 hPa | 0 mm | - | - | - |
| 1777510804 | 5.56° C | 92% | 1028.1 hPa | 0 mm | - | - | - |
| 1777510203 | 6.11° C | 92% | 1028.2 hPa | 0 mm | - | - | - |
| 1777509603 | 6.11° C | 91% | 1028.1 hPa | 0 mm | - | - | - |
| 1777509004 | 6.11° C | 90% | 1028 hPa | 0 mm | - | - | - |
| 1777508403 | 6.11° C | 89% | 1028.1 hPa | 0 mm | - | - | - |
| 1777507804 | 6.67° C | 88% | 1027.9 hPa | 0 mm | - | - | - |
| 1777507203 | 6.67° C | 86% | 1027.8 hPa | 0 mm | - | - | - |
| 1777506603 | 6.67° C | 85% | 1027.8 hPa | 0 mm | - | - | - |
| 1777506003 | 6.67° C | 84% | 1028 hPa | 0 mm | - | - | - |
| 1777505403 | 6.67° C | 83% | 1028 hPa | 0 mm | - | - | - |
* Rain latest hour (hover to see other rain measurements)
** Current wind speed in m/s (hover to see current wind gust speed)